FENGYUN 1C DEB, 30276

Orbit data source: Space-Track

FENGYUN 1C DEB, 30276 is space debris in SSO originally from a launch on Mon, 10 May 1999 UTC launched from the Taiyaun Space Center, China (TSC). Fengyun 1C debris stems from the Chinese weather satellite Fengyun-1C, which was intentionally destroyed by a Chinese anti-satellite missile in 2007. This event dramatically increased the amount of space debris, with thousands of trackable fragments posing hazards to satellites and human spaceflight. The Fengyun 1C debris cloud has become a focal point in discussions about space sustainability and the need for international regulations to prevent the creation of new debris.

Loading next visibility...
Identifier
30276, 1999-025YM
Orbit
SSO
Country
Flag of CNCN / PRC
Related business
Manufacturer
Unknown
Mission
Spacecraft
Bus & Motor
Unknown
Mass
Unknown
Launch date (UTC)
1999-05-10 (27 years ago)
Launch vehicle
Unknown
Launch site
Taiyaun Space Center, China (TSC)
Object type
Payload
Rocket body
Debris
Shape & HBR
Unknown shape, 0.1 m
Radar Cross Section
Small (<0.1 m²)

Expand to show TLE details & history
Last TLE update: 6 hours ago

TLE from 6 hours ago
0 FENGYUN 1C DEB
1 30276U 99025YM  26063.18002788  .00004031  00000-0  16488-2 0  9991
2 30276  98.8500 140.7886 0025770 207.1081 152.8755 14.27623208986926
Epoch: 2026-03-04T04:19Z
TLE epoch observation values (Epoch: 2026-03-04T04:19:14.408Z)
Latitude
-0.00006°
Longitude
-85.96986°
Altitude
819.083 km
Speed
7.435 km/s
True Right ascension
09h 23m 09s
True Declination
0° 00' 00"
Sunlit
Object was in full shadow at epoch
Visualization orbit readout
Latitude
Unknown
Longitude
Unknown
Altitude
Unknown
Speed
Unknown
Apparent Right ascension
Unknown
Apparent Declination
Unknown
Sunlit
N/A
Visualization observer readout
Local Sidereal Time
14:14:14
Azimuth
Unknown
Elevation
Unknown
Doppler factor
Unknown
Orbital elements
Apogee altitude
815.332 km
Perigee altitude
778.352 km
Semi-major axis
7,174.979 km
Eccentricity
0.00258
Inclination
98.85°
RAAN
140.7886°
Arg. of periapsis
207.1081°
True anomaly
153.00975°
Mean anomaly
152.8755°
Eccentric anomaly
152.94266°
Mean motion
3.57118 °/min
Orbital period
100.81 mins
BSTAR
0.0016488
Loading maneuver chart data...
Computing Atmospheric mass density...
Loading historical data...
Loading historical data...
Loading historical data...
Loading historical data...
Loading historical data...
Loading historical data...
Loading historical data...

Documentation

Showing up to 5 results
|